Weather History for Araxos, Greece

Change the Weather History Date:

Friday, July 5, 2013

  Actual Average Record
Temperature  
Mean Temperature 74 °F -  
Max Temperature 87 °F 87 °F 104 °F (2000)
Min Temperature 62 °F 66 °F 62 °F (2011)
Cooling Degree Days 10    
Growing Degree Days 24 (Base 50)    
Moisture  
Dew Point 59 °F    
Average Humidity 57    
Maximum Humidity 78    
Minimum Humidity 29    
Precipitation  
Precipitation 0.00 in - - ()
Sea Level Pressure  
Sea Level Pressure 29.91 in    
Wind  
Wind Speed 2 mph ()    
Max Wind Speed 9 mph    
Max Gust Speed -    
Visibility 6.2 miles    
Events      
Averages and records for this station are not official NWS values.
T = Trace of Precipitation, MM = Missing Value Source: Averaged Metar Reports

Daily Weather History Graph

Daily Weather History Graph

Search for Another Location

Airport:

Trip Planner

Search our weather history database for the weather conditions in past years. The results will help you decide how hot, cold, wet, or windy it might be!

Date:

Astronomy

Jul. 05, 2013 Rise Set
Actual Time 6:16 AM EEST 9:00 PM EEST
Civil Twilight 5:45 AM EEST 9:31 PM EEST
Nautical Twilight 5:06 AM EEST 10:10 PM EEST
Astronomical Twilight 4:22 AM EEST 10:54 PM EEST
Moon 4:01 AM EEST (7/5) 6:41 PM EEST (7/5)
Length of Visible Light 15h 46m
Length of Day
14h 43m
Waning Crescent, 8% of the Moon is Illuminated
Jul 5
Waning Crescent
Jul 8
New
Jul 16
First Quarter
Jul 22
Full
Jul 29
Last Quarter

Hourly Weather History & Observations

Time (EEST) Temp. Heat Index Dew Point Humidity Pressure Visibility Wind Dir Wind Speed Gust Speed Precip Events Conditions
12:50 AM 68.0 °F - 59.0 °F 73% 29.92 in - Calm Calm - N/A   Clear
1:50 AM 66.2 °F - 59.0 °F 78% 29.92 in - Calm Calm - N/A   Clear
2:50 AM 66.2 °F - 59.0 °F 78% 29.92 in - Calm Calm - N/A   Clear
3:50 AM 64.4 °F - 57.2 °F 77% 29.92 in - Calm Calm - N/A   Clear
4:50 AM 62.6 °F - 55.4 °F 77% 29.92 in - Calm Calm - N/A   Clear
5:50 AM 62.6 °F - 55.4 °F 77% 29.92 in - Calm Calm - N/A   Clear
6:20 AM 62.6 °F - 55.4 °F 77% 29.92 in 6.2 mi Calm Calm - N/A   Partly Cloudy
6:50 AM 62.6 °F - 55.4 °F 77% 29.92 in 6.2 mi Calm Calm - N/A   Scattered Clouds
7:20 AM 66.2 °F - 57.2 °F 73% 29.92 in 6.2 mi Calm Calm - N/A   Scattered Clouds
7:50 AM 69.8 °F - 57.2 °F 64% 29.92 in 6.2 mi Calm Calm - N/A   Scattered Clouds
8:20 AM 73.4 °F - 59.0 °F 61% 29.92 in 6.2 mi Calm Calm - N/A   Scattered Clouds
8:50 AM 77.0 °F - 60.8 °F 57% 29.92 in 6.2 mi Calm Calm - N/A   Partly Cloudy
9:20 AM 77.0 °F - 60.8 °F 57% 29.92 in 6.2 mi Calm Calm - N/A   Partly Cloudy
9:50 AM 78.8 °F - 60.8 °F 54% 29.92 in 6.2 mi Variable 3.5 mph - N/A   Partly Cloudy
10:20 AM 78.8 °F - 60.8 °F 54% 29.92 in 6.2 mi North 4.6 mph - N/A   Partly Cloudy
10:50 AM 80.6 °F 81.1 °F 59.0 °F 48% 29.92 in 6.2 mi Variable 3.5 mph - N/A   Partly Cloudy
11:20 AM 82.4 °F 81.7 °F 55.4 °F 39% 29.92 in - Variable 3.5 mph - N/A   Clear
11:50 AM 84.2 °F 82.8 °F 53.6 °F 35% 29.92 in - North 4.6 mph - N/A   Clear
12:20 PM 86.0 °F 84.2 °F 53.6 °F 33% 29.89 in 6.2 mi North 4.6 mph - N/A   Partly Cloudy
12:50 PM 87.8 °F - 51.8 °F 29% 29.89 in 6.2 mi NNE 4.6 mph - N/A   Partly Cloudy
1:20 PM 87.8 °F - 51.8 °F 29% 29.89 in 6.2 mi North 5.8 mph - N/A   Partly Cloudy
1:50 PM 82.4 °F 83.9 °F 64.4 °F 54% 29.89 in 6.2 mi West 9.2 mph - N/A   Partly Cloudy
2:20 PM 82.4 °F 83.9 °F 64.4 °F 54% 29.89 in 6.2 mi West 8.1 mph - N/A   Partly Cloudy
2:50 PM 82.4 °F 83.9 °F 64.4 °F 54% 29.89 in 6.2 mi West 9.2 mph - N/A   Partly Cloudy
3:20 PM 82.4 °F 83.9 °F 64.4 °F 54% 29.89 in 6.2 mi West 9.2 mph - N/A   Partly Cloudy
3:50 PM 82.4 °F 83.4 °F 62.6 °F 51% 29.89 in 6.2 mi West 9.2 mph - N/A   Partly Cloudy
4:20 PM 84.2 °F 83.8 °F 59.0 °F 42% 29.89 in 6.2 mi West 8.1 mph - N/A   Partly Cloudy
4:50 PM 84.2 °F 83.8 °F 59.0 °F 42% 29.89 in 6.2 mi West 9.2 mph - N/A   Partly Cloudy
5:20 PM 87.8 °F - 51.8 °F 29% 29.89 in 6.2 mi West 8.1 mph - N/A   Partly Cloudy
5:50 PM 86.0 °F 84.5 °F 55.4 °F 35% 29.89 in 6.2 mi West 8.1 mph - N/A   Partly Cloudy
6:20 PM 86.0 °F 84.9 °F 57.2 °F 37% 29.89 in 6.2 mi West 6.9 mph - N/A   Scattered Clouds
6:50 PM 80.6 °F 81.8 °F 62.6 °F 54% 29.89 in 6.2 mi West 6.9 mph - N/A   Scattered Clouds
7:50 PM 78.8 °F - 64.4 °F 61% 29.89 in 6.2 mi Variable 3.5 mph - N/A   Scattered Clouds
8:20 PM 78.8 °F - 64.4 °F 61% 29.89 in 6.2 mi West 4.6 mph - N/A   Scattered Clouds
8:50 PM 75.2 °F - 66.2 °F 73% 29.89 in 6.2 mi Variable 3.5 mph - N/A   Scattered Clouds
9:50 PM 75.2 °F - 64.4 °F 69% 29.92 in 6.2 mi Variable 3.5 mph - N/A   Scattered Clouds
10:50 PM 73.4 °F - 64.4 °F 73% 29.92 in 6.2 mi Variable 3.5 mph - N/A   Scattered Clouds
11:50 PM 73.4 °F - 62.6 °F 69% 29.92 in 6.2 mi Variable 3.5 mph - N/A   Mostly Cloudy